GEFSNE_500_meanwind_006.txt.gz
Wind_Speed
26 29 30 30 29 29 28 25 23 22 21 18 18 17 17 17 17 17 17 16 16 16 16 16 16 16 16 15 15 15 16 17 17 18 18 19 19 20
26 30 33 34 35 33 30 28 26 25 23 21 19 19 19 19 19 19 19 18 17 17 17 18 19 18 18 17 17 17 17 18 19 20 20 20 19 20
24 27 33 36 37 37 34 32 29 28 26 23 22 21 20 20 20 19 20 20 20 18 18 18 18 19 19 19 19 19 19 19 19 20 19 19 19 21
23 25 30 36 37 38 35 33 32 30 27 24 23 23 22 21 22 22 21 21 22 21 20 19 19 18 18 18 19 20 19 19 19 20 20 20 21 22
23 23 25 33 38 37 35 33 32 31 29 26 24 24 24 23 24 25 25 24 24 23 22 22 22 21 20 20 20 21 21 22 22 23 23 23 22 22
22 23 23 28 36 39 36 34 33 32 32 29 27 26 27 26 26 26 25 25 25 26 25 25 24 24 23 23 22 23 24 24 24 25 24 23 22 21
21 20 18 20 30 37 37 35 32 31 31 30 28 28 28 30 30 29 28 28 28 30 30 29 27 26 26 25 25 25 25 24 23 24 24 23 22 22
21 19 18 18 20 27 34 35 33 32 32 32 30 29 29 31 31 30 30 30 31 32 31 31 30 29 29 29 29 29 28 26 25 26 25 25 24 23
23 21 20 20 20 21 26 31 31 30 30 30 30 29 30 30 31 31 30 30 31 33 34 33 32 31 31 31 31 31 30 29 28 27 27 27 25 24
25 24 23 23 23 23 23 25 26 27 28 29 29 30 30 30 30 29 28 28 28 29 33 31 31 31 31 31 31 31 31 31 30 29 28 28 27 25
28 27 26 26 26 26 26 27 26 26 27 28 29 29 30 31 30 30 29 29 29 29 31 29 29 30 30 30 31 31 31 30 29 28 28 28 28 26
27 28 28 26 25 26 27 28 29 29 28 28 28 28 29 30 31 31 31 31 31 30 32 31 30 32 31 32 33 33 32 32 31 30 30 29 28 27
26 27 27 26 25 25 25 26 28 28 29 30 30 30 30 30 31 32 33 34 35 34 34 34 34 35 36 35 36 35 34 32 31 31 31 29 28 28
26 25 25 24 24 23 23 24 24 24 25 26 28 29 29 29 30 31 32 33 35 37 37 37 37 38 39 37 36 35 34 32 30 29 29 28 27 28
25 25 24 23 22 22 21 21 21 22 23 23 24 25 26 27 28 29 31 31 32 34 35 37 39 39 40 38 36 35 34 33 32 31 30 29 28 28
23 23 22 21 21 21 20 19 18 18 19 19 19 20 22 23 23 25 27 30 31 33 36 38 40 42 41 41 39 38 37 35 34 34 34 32 31 30
20 19 20 20 20 20 21 20 20 19 19 18 18 19 21 22 23 24 26 28 31 34 38 40 42 42 42 41 40 41 40 38 36 37 37 37 35 33
18 18 18 19 19 21 22 22 22 21 21 20 21 22 23 24 24 25 26 28 30 32 36 39 42 44 45 44 43 41 39 40 40 41 41 39 37 35
16 16 16 16 16 17 17 17 18 19 20 21 22 24 26 27 28 27 27 27 27 28 31 35 37 40 41 41 41 41 40 40 40 41 41 39 37 36
13 14 15 15 15 15 16 16 17 18 19 21 23 25 27 28 29 30 31 31 31 31 30 30 31 33 35 40 42 43 43 42 41 42 42 40 39 38
9 11 12 13 14 15 16 17 19 20 22 24 25 26 27 28 29 31 32 34 35 35 35 34 33 32 31 32 35 37 39 41 41 41 41 40 39 39
5 8 9 10 12 13 15 16 18 21 22 24 25 26 26 27 28 30 31 33 34 35 36 36 36 35 34 33 33 33 34 36 38 39 40 42 42 40
5 6 7 8 9 10 11 13 15 17 19 21 23 24 25 26 27 28 29 30 31 31 32 33 35 35 36 36 35 36 36 36 37 37 39 41 42 42

GEFSNE_500_meanwind_012.txt.gz
Wind_Speed
21 21 22 23 23 24 25 25 24 23 22 20 18 17 16 16 17 17 18 19 20 20 20 19 18 17 16 15 16 16 17 18 19 20 20 20 20 19
21 21 20 21 22 22 23 26 27 27 26 24 23 21 20 19 19 18 18 19 20 20 20 20 19 19 18 18 18 18 18 17 16 16 17 18 18 19
19 20 20 21 21 22 24 26 28 29 29 29 27 25 23 22 21 21 20 20 20 20 21 21 21 21 20 20 20 19 19 18 17 17 18 18 19 19
17 18 19 20 21 22 23 25 28 30 30 30 30 30 28 26 24 23 22 22 22 22 23 23 23 23 22 21 21 20 20 19 19 19 19 20 20 20
17 18 19 20 22 22 24 26 29 31 31 32 32 32 31 29 27 27 26 24 23 23 24 24 24 24 24 23 23 22 22 21 21 21 21 22 23 23
19 20 20 21 21 22 24 26 29 33 34 33 34 35 33 32 30 30 29 27 25 24 26 26 26 25 26 26 25 25 24 24 24 24 24 25 26 26
22 23 23 23 23 23 23 25 29 33 36 36 37 37 36 35 34 32 31 28 26 27 27 27 27 27 27 27 28 28 28 28 28 27 27 28 28 29
24 25 25 25 25 24 22 22 25 30 34 37 38 37 37 37 36 34 32 30 30 31 29 29 28 29 29 29 30 31 31 31 31 30 30 30 30 30
25 25 25 26 25 24 22 21 22 26 31 35 37 38 37 37 37 36 35 32 32 32 32 33 34 33 33 32 33 34 34 35 34 34 33 34 34 33
25 26 25 25 25 24 22 22 21 22 25 31 35 36 36 35 36 36 35 33 32 32 33 34 35 34 33 34 34 35 36 37 37 37 36 36 36 35
24 25 26 26 25 24 24 23 22 22 21 24 28 30 31 31 32 32 33 32 32 33 33 33 34 32 31 32 33 33 35 36 37 37 37 37 36 35
22 23 25 26 26 25 24 24 23 22 22 21 22 23 25 26 27 29 31 31 32 33 34 34 34 33 31 32 33 33 34 35 35 35 35 35 36 35
22 22 23 25 25 25 25 25 25 23 23 23 23 24 24 25 26 27 29 31 32 33 34 35 35 35 34 35 36 36 36 36 36 36 36 36 36 37
26 25 25 25 25 24 24 25 25 25 24 25 25 25 26 27 28 29 30 32 33 34 35 35 36 37 38 38 39 40 40 39 39 40 40 40 40 40
30 28 27 26 25 24 23 23 24 24 24 25 25 26 26 27 27 28 29 30 31 33 34 35 37 38 39 39 40 41 42 42 42 43 43 43 43 42
30 30 28 26 24 23 23 22 23 23 23 23 23 23 23 23 23 24 25 26 28 30 32 33 34 35 36 38 39 40 42 43 43 43 43 44 44 44
26 27 25 23 22 21 21 21 21 21 21 20 20 20 20 21 22 23 24 25 27 29 30 32 33 35 36 37 39 41 43 44 45 45 45 45 45 45
19 20 20 19 19 18 18 18 18 19 19 19 19 20 21 22 23 25 26 28 29 30 31 32 33 35 36 38 40 41 44 45 46 46 48 48 48 49
13 14 14 15 15 14 15 15 15 17 18 19 21 22 23 25 26 28 30 31 32 34 35 36 36 37 38 39 39 42 43 44 45 45 46 47 48 49
8 9 10 11 11 11 12 13 14 15 16 18 20 22 24 26 28 30 31 33 34 35 36 37 38 39 39 40 41 42 43 44 44 44 44 45 45 47
5 6 7 8 8 8 8 9 11 13 15 17 20 22 24 27 29 30 32 34 35 36 36 37 38 38 39 40 40 41 43 44 45 44 43 43 44 44
7 6 5 3 2 2 3 5 8 10 13 15 17 20 22 25 27 29 31 32 33 34 35 36 37 38 38 39 40 41 42 43 44 45 44 44 43 42
11 9 8 7 6 5 4 5 6 9 11 14 17 19 22 24 26 28 29 30 31 32 33 33 35 36 37 38 39 39 39 40 41 42 43 43 43 42

GEFSNE_500_meanwind_018.txt.gz
Wind_Speed
25 25 27 26 25 24 23 23 23 25 26 24 23 20 19 19 20 21 22 24 25 25 24 23 23 23 23 22 21 19 20 20 21 22 23 23 22 21
22 23 24 24 22 22 23 23 23 25 27 26 24 21 19 19 18 18 19 21 23 24 24 24 24 24 23 22 21 20 19 19 19 20 20 20 20 20
20 20 20 21 21 20 21 22 22 24 27 28 27 24 23 22 20 19 18 19 20 21 22 23 24 24 24 23 22 22 21 20 20 20 20 20 20 20
19 19 19 19 19 19 19 20 22 22 25 27 29 29 27 25 23 22 21 21 21 21 21 22 23 23 24 24 23 23 23 23 23 23 23 23 23 23
19 18 18 18 17 18 18 19 20 22 24 25 27 30 30 29 28 26 25 25 24 22 22 23 24 24 24 24 24 25 25 25 25 25 25 26 26 25
20 20 19 18 18 18 18 19 20 20 21 24 26 29 30 30 30 30 30 30 28 26 26 26 26 26 26 26 26 27 27 27 27 26 26 26 26 26
22 22 21 20 19 19 19 19 20 21 21 22 26 27 29 31 32 32 32 32 31 31 31 30 29 28 29 29 29 29 30 30 29 29 28 28 28 28
22 23 23 23 22 22 21 21 22 22 22 23 24 27 29 32 34 35 34 34 34 34 34 33 31 31 32 31 31 31 32 31 31 31 31 31 31 31
23 23 23 24 24 24 23 23 24 24 23 23 24 25 27 30 34 37 37 36 37 38 37 36 35 34 34 32 32 32 33 33 32 33 33 34 34 34
24 24 23 23 23 24 24 24 24 24 24 24 24 24 25 27 30 34 38 39 39 40 40 38 38 38 36 34 34 34 35 35 35 35 35 36 36 36
22 23 24 23 23 23 23 23 23 23 23 23 23 23 24 26 29 31 34 36 38 40 41 40 41 42 40 38 37 37 37 37 38 37 37 37 37 37
20 21 22 22 22 21 22 22 22 22 22 22 22 22 22 23 25 27 30 33 36 38 41 42 42 43 42 41 40 40 39 39 38 38 37 37 37 37
22 21 21 21 20 20 20 20 20 21 21 22 22 22 22 22 23 23 24 26 29 31 35 37 39 40 41 41 42 42 41 40 40 39 39 38 38 38
23 23 23 22 20 19 18 18 19 19 20 21 22 22 22 22 23 23 24 24 25 26 28 31 33 35 37 37 38 40 41 41 41 42 42 42 42 42
25 25 25 24 23 21 19 19 18 19 20 20 21 22 22 23 23 24 25 26 27 28 29 31 32 33 35 36 37 39 41 42 43 43 44 44 44 44
24 25 25 25 24 23 21 19 19 18 19 19 20 21 22 22 23 24 26 27 28 29 30 31 32 33 34 36 37 38 40 41 42 43 44 45 45 45
18 20 21 22 21 21 20 19 18 18 18 18 18 19 20 21 22 23 24 25 26 27 28 29 30 31 33 34 35 37 38 39 40 41 41 42 43 45
7 10 14 16 16 16 16 16 16 15 15 15 16 16 17 19 20 22 23 25 26 28 29 30 31 32 34 35 36 37 39 40 41 42 43 43 44 46
4 6 9 10 9 9 9 9 9 10 10 11 13 14 16 18 19 21 23 25 27 29 31 32 33 34 36 37 38 40 40 41 42 43 44 44 44 45
10 10 9 8 7 5 4 3 3 4 6 8 10 12 14 17 20 22 24 26 28 30 33 34 35 36 37 38 39 41 42 43 43 43 44 45 45 45
16 15 13 11 9 8 6 4 3 3 5 7 9 12 15 17 20 22 25 27 29 31 33 34 35 36 37 38 39 40 41 43 43 44 44 45 45 46
19 18 17 15 13 12 10 8 7 7 8 10 12 14 17 19 22 24 26 27 28 29 31 32 33 34 35 36 37 37 39 40 41 42 43 44 45 45
21 21 20 19 17 16 13 12 11 11 12 14 16 17 19 20 22 23 24 24 25 25 26 27 28 29 31 32 34 35 36 37 38 40 41 42 42 43

GEFSNE_500_meanwind_024.txt.gz
Wind_Speed
25 25 24 24 24 24 25 25 25 26 26 26 24 24 25 25 24 24 26 26 27 28 29 29 29 28 28 27 26 26 25 25 25 26 27 27 29 30
23 23 22 22 22 22 22 22 22 23 24 26 26 25 25 25 24 23 23 24 25 26 27 28 29 29 28 27 26 25 25 25 24 24 24 25 26 27
21 21 20 20 20 19 20 19 20 21 22 23 24 24 24 25 25 23 22 22 23 23 24 25 27 27 28 27 27 26 25 25 24 24 23 23 23 24
20 20 19 19 18 18 18 18 18 19 21 22 22 23 24 25 25 25 23 22 21 21 22 22 23 25 26 27 27 27 26 26 26 25 24 24 23 22
19 20 19 19 18 18 17 18 18 18 20 22 23 24 24 26 27 27 25 24 23 22 21 21 22 22 24 25 25 26 26 27 27 27 26 26 25 24
20 20 20 20 19 18 17 17 18 17 18 19 21 23 23 25 27 28 29 28 27 26 24 24 23 23 24 24 25 25 26 26 27 27 28 28 27 27
20 21 20 21 20 20 19 18 18 18 19 19 20 21 22 24 26 28 29 31 30 29 28 28 27 26 26 26 26 26 27 27 27 27 28 29 29 29
21 21 21 22 22 21 21 21 20 20 19 20 20 21 21 21 23 26 28 30 31 31 32 31 30 30 30 30 30 29 29 30 30 30 31 31 32 32
22 22 23 23 23 23 22 23 22 22 21 21 21 21 21 21 21 23 25 27 30 32 33 34 34 34 33 33 33 34 34 34 34 34 34 34 35 35
23 22 22 22 23 23 23 23 23 23 23 23 22 22 22 23 22 22 23 25 27 29 30 33 36 37 36 35 36 37 37 37 37 37 37 37 37 37
23 22 22 21 22 23 23 22 22 22 23 23 23 23 23 23 24 24 25 26 26 28 29 31 34 37 38 38 38 38 40 40 41 40 40 40 40 39
23 22 21 20 20 21 21 21 21 21 21 21 22 22 23 23 24 24 25 26 27 29 30 32 33 34 35 38 39 39 40 41 42 42 43 43 43 42
22 21 21 20 19 19 19 19 19 19 19 19 20 21 21 22 23 24 24 25 26 28 29 30 31 32 33 34 36 37 39 41 42 44 45 45 45 45
22 22 21 20 20 19 18 17 17 17 17 17 18 19 20 21 22 23 24 25 26 27 29 30 31 31 32 33 34 36 37 39 42 44 45 46 46 47
20 20 20 20 20 19 17 16 15 15 15 16 16 17 19 20 21 23 24 26 27 28 30 31 32 32 33 34 35 35 36 37 39 40 42 44 45 45
16 17 18 18 18 17 17 16 14 14 14 15 16 17 18 19 20 21 23 24 26 27 28 30 31 33 33 35 35 36 37 37 38 38 39 41 42 42
9 11 13 14 15 15 15 15 14 13 13 14 14 15 16 17 18 20 21 22 24 25 27 29 30 31 33 34 35 36 37 38 38 39 40 40 41 42
3 5 8 9 10 11 11 10 10 10 10 11 11 12 14 15 16 18 19 21 24 26 27 29 30 32 33 34 36 36 37 38 39 40 40 41 42 43
8 7 7 7 7 7 6 5 4 4 5 6 7 9 10 12 15 17 19 22 24 26 28 29 30 31 33 34 35 36 37 38 40 41 42 42 43 44
17 15 14 12 11 10 8 6 4 2 1 3 5 7 9 11 14 16 18 20 23 25 26 27 28 29 31 32 34 36 37 38 39 40 42 43 44 45
22 21 20 18 16 14 12 10 8 7 5 5 6 7 9 10 12 14 16 18 20 21 22 24 25 26 27 29 30 32 33 35 36 38 39 40 41 43
24 23 22 21 19 17 15 13 12 11 10 9 9 9 10 11 12 14 16 18 19 20 21 23 24 24 25 26 28 29 30 32 33 34 36 37 38 39
23 22 21 19 18 17 15 14 13 13 12 12 12 12 12 13 14 15 16 18 19 20 21 22 23 23 24 25 26 27 28 29 31 32 34 35 36 37

GEFSNE_500_meanwind_030.txt.gz
Wind_Speed
26 27 27 28 28 28 28 28 27 25 25 26 25 24 24 24 23 22 23 23 23 24 24 25 25 25 26 26 26 26 26 27 27 28 29 29 30 31
25 26 26 26 26 26 26 26 25 24 24 25 25 23 23 22 21 22 22 23 23 23 23 24 24 25 26 26 27 27 27 27 27 27 27 28 28 28
23 23 24 24 24 25 25 24 24 23 22 23 23 22 21 21 21 21 21 22 23 23 23 23 24 25 25 26 26 27 27 27 27 27 27 26 27 27
22 22 23 23 23 23 24 23 23 23 22 22 22 21 21 21 21 21 21 21 22 22 21 21 21 22 23 24 25 26 26 27 27 27 27 27 27 27
21 22 22 22 22 23 23 23 22 22 21 22 21 21 20 21 21 21 21 22 22 22 21 20 21 21 21 22 23 24 25 26 26 27 27 27 27 27
21 22 22 22 22 22 23 22 22 21 21 21 22 21 21 20 21 21 22 23 23 24 23 22 22 22 22 22 23 23 24 25 25 26 26 26 26 27
22 21 21 21 21 22 22 22 22 22 21 21 20 21 21 19 19 20 21 21 21 22 23 24 24 24 24 25 25 24 25 25 26 27 27 27 27 28
22 22 21 21 21 21 21 21 22 22 22 21 21 20 20 19 18 18 19 19 19 20 22 25 27 28 28 28 27 27 28 28 28 29 29 30 30 30
23 22 21 21 21 21 21 21 21 21 21 21 21 20 19 18 17 17 18 17 18 18 20 22 24 26 28 29 29 30 32 32 32 32 32 33 33 33
23 22 21 20 20 20 20 20 20 20 20 20 20 20 19 19 17 17 17 17 17 18 18 20 22 24 26 28 30 32 33 34 35 36 37 37 37 37
23 22 21 20 20 20 19 19 19 19 18 18 18 18 18 18 18 18 18 18 18 19 20 20 22 23 25 26 29 31 32 33 34 36 37 38 39 40
21 21 20 20 20 19 18 17 17 16 16 16 16 16 16 16 16 17 17 18 18 19 20 21 22 23 24 26 28 29 31 32 33 34 36 37 39 40
19 18 18 18 18 17 16 15 14 13 13 13 13 14 14 13 14 14 16 17 17 18 19 21 22 24 25 26 28 30 31 32 33 34 35 36 37 39
16 15 15 15 15 15 14 13 12 11 11 11 10 11 11 11 12 13 14 15 16 17 19 21 22 24 26 28 29 31 32 34 34 35 36 37 38 39
12 12 12 13 13 14 13 12 11 10 9 8 9 9 10 10 11 11 12 14 15 17 19 21 23 24 26 28 30 32 33 34 36 36 37 39 40 40
7 7 8 10 11 12 11 10 9 8 7 7 8 8 8 9 10 10 12 13 15 17 19 21 23 25 27 29 30 32 33 34 35 36 37 38 39 40
3 5 6 7 8 9 8 8 6 5 5 5 5 6 6 7 9 10 12 14 15 17 18 20 23 25 27 29 30 32 33 34 35 36 37 38 40 40
8 8 7 7 7 7 6 5 5 3 2 2 3 4 5 7 8 10 12 13 15 17 19 20 22 24 26 28 29 30 31 32 33 35 36 37 39 40
13 12 10 9 8 7 6 5 3 2 1 1 2 3 5 6 8 9 11 13 14 16 18 19 21 24 25 26 28 28 29 31 32 33 34 35 37 38
18 17 15 13 12 11 9 8 7 6 5 4 5 5 6 7 8 9 11 13 14 17 18 20 22 24 25 26 27 28 28 29 29 30 31 33 34 35
21 20 18 17 15 14 12 11 9 8 8 8 8 8 8 8 9 10 12 13 15 17 19 21 23 24 26 27 28 28 28 28 29 28 28 29 29 30
21 20 19 18 16 15 14 12 11 10 9 9 9 9 9 10 10 11 13 14 16 18 20 22 24 25 26 28 28 29 29 29 28 28 27 27 26 26
20 19 18 16 15 14 14 13 12 11 11 10 10 10 10 11 12 13 14 16 17 19 21 23 24 26 27 28 29 29 30 29 28 28 27 26 26 25

GEFSNE_500_meanwind_036.txt.gz
Wind_Speed
30 31 32 32 33 32 31 30 29 27 25 24 24 23 23 22 23 23 24 25 25 26 26 26 27 27 28 28 29 29 29 30 30 30 30 29 29 30
31 31 32 33 33 31 30 29 27 25 24 23 22 22 22 22 22 22 23 23 23 24 24 25 25 26 27 28 29 29 30 30 30 31 30 30 30 30
31 32 32 31 29 28 27 25 24 23 22 22 21 21 21 21 21 21 22 22 23 22 23 23 25 26 26 27 28 29 29 30 31 31 31 30 30 30
24 25 25 24 24 24 23 23 22 21 21 20 20 20 20 20 20 21 21 22 23 23 23 23 24 25 26 26 26 27 28 28 29 29 30 30 31 31
19 19 19 19 20 20 20 21 20 20 20 20 20 20 20 20 20 20 21 22 22 23 24 24 24 24 25 25 25 25 26 27 27 27 28 29 30 31
17 17 18 18 19 20 20 20 19 19 19 19 19 19 19 19 20 20 20 20 21 22 23 24 24 24 25 24 24 25 25 25 26 26 27 28 29 30
16 17 17 17 18 18 18 19 19 19 19 19 19 19 19 19 19 19 19 19 19 20 21 21 24 25 26 25 24 25 25 25 26 27 27 28 29 29
18 18 18 18 18 18 18 18 18 18 18 18 19 19 19 19 19 19 19 18 19 19 19 20 21 22 23 23 24 25 26 26 26 27 28 29 30 30
20 19 19 19 19 18 18 18 18 18 18 17 17 17 17 17 18 18 18 18 18 17 17 17 18 19 20 21 23 25 26 28 30 31 31 32 34 35
21 21 20 20 19 19 18 18 18 17 17 17 16 16 16 16 17 17 17 17 18 18 17 18 18 19 19 19 21 24 27 29 31 32 33 34 35 36
22 22 22 21 20 19 18 17 17 17 16 16 15 15 15 15 15 15 16 16 17 17 17 18 18 19 19 20 21 23 24 26 28 30 32 34 36 38
22 22 21 21 20 19 18 17 17 16 15 14 14 14 13 13 13 13 14 14 15 14 15 16 17 18 19 20 22 23 25 27 29 31 32 34 36 37
19 19 19 18 17 17 16 16 16 15 13 12 11 11 10 10 10 11 11 12 12 12 13 14 15 16 18 19 21 23 25 27 29 31 33 34 36 38
14 15 15 14 14 14 14 14 13 12 11 10 9 9 8 7 8 8 8 9 10 11 12 12 14 15 17 19 21 23 25 28 30 31 33 34 36 38
7 9 10 10 10 11 10 10 10 9 8 7 7 6 5 5 5 6 6 7 8 9 10 11 12 14 16 18 21 23 25 27 29 30 31 33 34 36
4 6 7 8 8 8 8 8 7 7 6 5 4 3 3 3 4 4 5 6 7 8 9 10 12 14 16 18 20 22 24 26 27 28 30 31 33 34
7 7 7 7 7 7 7 7 7 6 5 4 3 2 2 1 1 1 3 5 6 8 9 11 12 14 17 19 21 23 25 26 27 28 29 30 31 32
12 11 10 8 8 9 9 8 7 6 4 3 3 3 2 2 2 3 4 6 7 9 10 12 14 16 18 20 22 24 25 26 27 27 28 28 28 29
17 16 14 13 12 11 10 9 8 7 7 6 6 6 6 5 5 5 6 7 9 10 12 13 15 17 19 21 23 25 27 27 28 28 28 28 28 27
19 18 17 16 15 14 13 12 12 11 10 10 9 9 8 7 7 7 8 9 10 11 13 14 16 18 20 22 23 25 27 28 29 29 29 29 29 28
20 20 19 18 17 16 15 14 13 13 12 11 10 10 9 8 8 8 9 9 10 12 13 15 16 18 20 21 23 25 27 28 29 30 31 31 31 30
20 19 19 18 18 17 16 15 14 13 12 12 11 10 9 9 9 9 9 10 11 12 13 14 16 18 19 21 22 24 26 28 29 30 31 32 32 32
19 18 17 16 16 15 15 14 13 13 12 12 11 11 10 9 9 10 10 11 11 12 13 15 16 17 19 20 22 23 25 26 28 29 30 31 31 31

GEFSNE_500_meanwind_042.txt.gz
Wind_Speed
32 33 34 33 32 32 32 32 33 32 32 31 31 31 30 30 29 28 27 27 26 25 26 26 26 25 25 25 26 26 26 27 27 28 29 30 30 31
34 34 33 33 32 33 33 33 33 32 31 31 31 31 30 29 28 27 26 25 25 25 26 26 26 25 24 25 24 25 25 26 27 28 28 29 30 31
32 31 31 31 30 30 30 31 31 30 30 29 29 28 27 26 25 24 25 25 25 25 25 25 25 25 25 24 24 24 25 26 26 27 28 29 29 31
28 28 29 28 28 29 29 29 29 28 28 27 25 25 24 24 23 24 24 25 25 25 24 24 24 24 24 24 24 24 25 26 26 26 27 28 29 29
25 25 25 25 25 24 24 24 24 24 23 23 22 22 21 21 22 23 23 24 24 23 23 23 23 23 23 24 24 24 24 25 26 27 28 28 28 28
22 21 21 20 20 20 20 20 20 19 18 18 18 18 18 19 20 20 21 21 22 22 22 22 22 22 22 22 23 24 25 25 25 26 26 27 28 29
18 18 17 17 18 18 17 17 16 15 14 14 15 15 16 17 17 18 19 20 21 21 21 21 21 21 21 22 23 24 25 26 25 26 27 27 27 28
15 14 15 15 15 15 14 14 13 13 13 14 14 15 15 16 17 18 18 19 20 20 20 19 20 21 21 21 22 23 22 23 25 26 26 26 27 28
17 16 16 15 14 14 13 13 12 12 12 12 13 13 14 14 15 16 17 18 18 19 19 19 19 20 20 21 20 20 21 22 23 25 25 26 28 31
16 17 16 16 16 15 14 13 13 13 13 13 13 13 13 14 14 15 15 16 16 17 17 17 18 18 18 19 19 19 20 21 21 23 24 26 28 30
15 15 16 15 15 14 14 14 13 13 13 13 13 13 13 13 13 13 13 13 14 14 14 15 16 16 17 17 18 18 19 19 20 21 23 25 27 29
14 14 15 15 15 14 14 14 13 13 13 13 12 12 12 12 11 11 11 10 10 10 11 12 13 13 13 14 15 16 17 18 19 20 22 24 26 28
12 12 12 13 13 13 13 13 12 12 12 12 11 10 9 9 8 8 7 7 7 8 8 9 10 10 11 12 13 14 15 17 18 20 22 23 25 26
8 9 10 10 11 11 11 11 11 11 11 11 9 8 7 6 5 5 4 4 5 5 6 7 8 9 9 10 12 13 15 17 18 20 21 22 23 24
6 8 8 9 10 10 10 10 10 9 9 8 8 7 6 4 3 2 2 2 2 3 5 6 7 8 10 11 13 14 16 17 19 20 21 22 22 23
9 9 10 10 10 10 9 9 8 8 7 7 6 5 4 3 3 2 1 1 2 4 5 6 8 9 10 12 13 14 16 17 19 20 21 22 22 23
12 12 11 11 10 10 10 9 9 8 8 7 7 6 6 5 5 4 3 3 4 4 5 7 8 9 10 12 14 15 16 18 19 21 22 23 24 25
15 15 14 14 13 12 12 11 10 10 9 9 8 8 7 7 6 6 5 4 4 4 5 7 8 9 11 12 14 15 17 18 20 21 23 24 25 26
18 17 17 16 15 14 13 13 12 12 11 10 10 9 9 9 7 6 5 4 4 5 6 7 8 10 11 13 14 16 17 19 20 21 23 24 25 26
20 19 18 17 17 16 15 14 14 13 13 12 11 10 9 8 7 6 5 5 5 6 7 8 9 10 12 13 15 16 18 19 20 21 22 24 25 26
20 19 19 18 17 16 16 15 14 13 13 12 12 10 9 8 7 6 6 6 6 7 8 9 10 12 13 14 16 17 18 19 20 21 23 24 25 26
19 18 18 17 17 16 16 15 15 14 13 12 11 10 10 9 8 8 7 7 8 8 9 10 11 13 14 15 16 18 19 20 21 22 23 24 25 26
17 17 16 16 16 15 15 14 14 14 13 12 11 11 10 9 9 9 8 8 8 9 10 11 12 13 15 16 17 18 20 21 22 23 24 24 25 26

GEFSNE_500_meanwind_048.txt.gz
Wind_Speed
32 32 32 32 32 32 33 33 34 35 35 35 34 33 33 33 33 33 32 31 31 30 30 30 29 28 28 27 27 28 28 28 29 29 29 29 30 31
33 33 32 32 34 33 33 34 35 35 36 36 35 34 35 35 33 32 31 30 30 30 30 29 28 27 26 26 27 27 28 28 29 29 29 29 30 30
34 34 33 33 34 34 35 34 34 34 35 35 35 33 34 34 33 32 31 29 28 28 27 27 26 25 25 26 26 26 27 28 28 29 29 29 30 31
34 34 34 34 34 33 33 32 32 32 32 31 31 31 31 30 30 29 28 27 26 25 25 24 24 24 24 25 25 26 26 27 28 29 29 29 30 31
33 32 32 32 32 31 31 31 31 30 30 30 29 29 28 27 26 25 24 23 24 23 23 23 22 23 24 24 24 25 25 26 27 27 28 29 29 30
30 30 29 30 30 29 28 28 29 29 29 27 26 25 24 22 21 20 19 19 20 21 21 21 21 22 23 23 23 24 24 25 25 26 27 28 29 30
26 26 27 27 26 25 25 24 25 25 24 23 22 20 19 17 17 17 17 17 18 19 19 20 20 21 21 21 21 23 23 24 24 25 26 27 28 29
24 24 24 23 24 24 24 22 21 20 20 19 18 17 17 16 16 16 16 16 17 18 18 19 19 19 20 20 21 22 22 23 23 24 25 26 27 28
21 21 22 22 22 22 22 21 20 19 18 16 16 16 15 15 15 15 15 15 16 16 17 17 17 18 18 19 19 20 20 21 22 23 23 24 24 25
19 19 19 20 20 19 19 19 17 17 16 16 15 15 14 14 14 14 14 14 14 14 15 15 15 16 16 17 17 18 18 19 19 20 20 20 21 21
17 17 18 18 18 17 17 17 17 16 15 15 15 14 14 13 13 12 12 12 12 12 12 12 12 13 13 13 14 15 15 15 16 16 17 18 18 19
16 17 17 17 17 17 16 16 16 16 15 15 14 14 13 12 11 11 11 10 10 9 9 10 9 9 10 11 11 11 12 12 13 14 15 16 17 17
14 16 17 17 16 17 16 16 16 15 14 14 14 13 12 11 10 10 9 8 8 7 7 6 6 7 7 8 9 10 10 11 12 13 13 14 15 16
12 14 15 16 16 16 16 15 15 15 14 13 12 11 10 10 9 8 8 7 6 5 4 3 4 4 5 6 7 8 9 10 11 11 12 13 14 14
10 13 15 15 15 15 15 15 14 14 13 13 12 11 10 9 8 8 7 6 4 3 2 2 2 3 4 5 6 7 8 9 10 11 12 13 14 14
11 12 12 13 14 14 14 14 13 13 12 11 10 10 9 9 8 8 7 5 4 3 2 1 1 2 4 5 6 7 8 9 10 11 12 13 14 15
13 12 12 12 13 13 13 12 12 12 11 11 10 10 10 9 9 8 7 5 4 3 2 0 1 2 3 5 6 7 8 9 10 11 12 14 15 16
14 13 13 13 13 13 12 12 12 12 12 11 11 10 10 10 9 8 6 5 4 3 1 0 1 2 3 4 6 7 8 9 10 11 13 14 15 16
15 15 14 14 14 14 13 13 13 13 13 12 11 11 11 10 9 7 6 5 4 3 2 2 2 3 4 5 6 7 9 10 11 12 14 14 15 16
16 15 15 15 15 15 15 14 14 14 13 13 12 12 11 9 8 7 6 5 4 3 2 2 2 3 4 6 7 8 10 11 12 13 14 15 16 17
16 16 16 16 15 15 14 14 14 13 13 12 12 11 10 8 7 6 6 5 4 3 2 2 3 4 5 6 8 9 10 11 12 14 15 16 17 18
16 15 15 15 15 14 14 14 13 13 13 12 11 10 9 8 7 6 6 4 3 2 1 2 4 5 6 7 8 10 11 12 13 14 15 17 18 19
15 15 15 15 15 15 14 14 13 13 12 11 11 10 9 8 7 5 4 3 1 1 3 4 5 6 7 8 9 10 11 13 14 15 16 18 19 21

GEFSNE_500_meanwind_054.txt.gz
Wind_Speed
35 35 33 33 32 31 31 30 29 28 29 29 30 30 30 29 29 28 28 28 29 29 30 31 32 32 32 32 32 31 31 31 31 31 31 31 31 31
34 33 33 33 33 32 31 31 30 30 30 31 30 30 30 30 30 30 30 30 30 30 30 31 32 32 31 31 31 31 30 30 30 30 30 30 30 30
34 34 34 33 33 33 32 32 31 30 30 31 31 31 31 30 30 31 31 31 30 30 30 30 30 29 28 28 28 28 28 28 28 28 28 28 29 31
34 34 34 34 34 33 32 32 31 30 30 31 31 32 31 31 30 29 29 27 28 29 29 28 26 26 26 26 26 26 27 27 27 26 26 27 28 29
32 32 32 33 34 33 32 32 32 31 31 31 30 30 30 29 28 28 28 27 27 26 25 24 24 24 24 24 24 24 23 23 23 24 25 26 27 28
29 30 30 31 32 32 31 31 31 31 30 30 28 28 28 27 26 25 25 23 22 21 20 20 20 21 21 21 20 20 20 21 22 23 24 25 25 26
26 27 27 28 29 30 29 28 29 28 28 27 26 26 25 24 24 23 21 19 17 17 16 16 16 16 16 16 17 17 18 20 21 21 22 23 23 24
23 25 26 26 26 26 26 27 26 26 26 25 24 22 22 22 20 19 18 16 15 14 13 12 12 13 13 14 15 16 17 18 18 19 20 20 21 22
21 22 24 24 24 24 24 24 23 23 22 21 20 19 19 18 17 16 15 13 12 12 11 11 11 11 12 13 14 15 15 16 16 17 17 17 18 19
17 18 20 21 22 21 20 21 21 20 20 19 18 17 16 15 14 13 12 11 10 9 9 10 11 11 11 12 12 12 13 14 14 14 14 15 16 17
14 16 17 18 20 20 19 19 19 19 18 18 16 15 13 12 12 11 11 10 9 8 8 9 9 9 9 9 10 10 11 11 11 12 13 14 15 15
11 13 14 16 16 16 17 17 18 18 16 15 15 13 12 11 10 10 9 9 8 8 7 7 7 7 7 7 7 8 8 9 10 11 12 13 14 14
9 12 13 14 14 14 14 14 15 16 15 14 13 12 12 11 10 9 8 8 7 7 6 5 5 5 5 6 6 7 7 8 9 10 11 12 13 13
9 10 11 12 13 14 14 14 14 14 14 14 13 11 11 10 9 8 8 7 6 5 5 4 4 4 4 5 5 6 7 8 9 9 11 11 12 12
8 9 10 11 11 13 13 14 15 14 13 13 12 10 10 9 8 8 7 6 5 4 4 3 3 3 3 4 4 5 6 7 8 9 9 10 11 12
9 10 11 12 12 13 14 14 14 13 12 12 11 10 10 9 8 7 7 6 5 4 4 3 2 2 3 3 4 5 6 7 7 8 9 10 11 12
12 12 12 13 13 13 13 13 12 12 12 11 11 10 9 8 8 8 7 7 6 4 3 3 3 3 3 3 4 5 6 6 7 8 9 10 11 12
14 13 13 13 13 12 12 12 11 11 11 11 10 9 9 9 9 8 7 6 5 4 3 3 3 2 2 3 4 5 5 6 7 8 9 11 12 13
15 15 14 14 13 12 12 11 11 12 11 11 10 10 10 10 9 8 7 5 5 4 3 3 2 2 2 3 4 5 5 6 8 9 10 11 12 13
16 15 15 14 13 13 13 12 12 12 12 11 11 10 10 9 8 7 5 5 4 3 3 2 2 2 3 4 5 5 6 7 8 10 11 11 12 14
16 15 15 14 14 14 14 13 13 12 12 11 11 10 9 8 7 6 5 4 3 3 2 2 3 3 4 5 6 6 7 8 9 10 11 12 13 14
15 15 15 15 14 14 14 13 13 12 11 11 10 10 8 7 6 5 4 3 2 2 2 3 4 5 5 6 6 7 7 8 9 10 11 12 13 14
14 14 14 14 13 13 12 11 11 11 10 10 9 8 6 5 4 4 3 2 2 2 3 4 5 6 6 6 7 7 8 9 10 10 11 12 13 15

GEFSNE_500_meanwind_060.txt.gz
Wind_Speed
36 36 37 38 38 38 37 37 37 37 36 35 33 32 31 30 29 29 29 29 28 28 28 28 28 28 29 28 28 29 29 29 29 29 28 28 28 28
36 36 36 37 39 40 39 38 38 37 37 36 35 34 32 31 31 30 29 28 29 28 28 28 28 29 29 30 30 29 28 27 27 28 28 28 28 28
38 37 37 36 37 37 37 38 38 38 37 37 36 34 33 32 32 31 29 28 29 28 28 27 27 28 29 29 29 28 27 27 27 27 27 27 27 27
37 37 36 37 37 37 38 37 37 37 37 36 35 33 33 32 31 30 30 30 30 29 28 29 28 28 27 27 27 26 26 27 27 26 26 26 26 26
37 37 36 36 36 37 37 37 36 36 36 36 34 33 32 31 30 30 30 30 31 30 29 30 29 28 27 27 26 26 25 25 24 24 23 23 23 23
35 36 36 36 35 35 36 35 35 35 35 34 33 32 31 30 30 29 29 29 28 28 28 27 27 27 26 25 25 23 22 21 21 21 21 20 20 21
32 33 33 34 34 34 34 34 35 35 34 33 33 32 30 29 28 28 28 27 27 27 27 26 25 24 23 22 21 20 20 19 19 19 18 18 18 19
28 30 31 30 30 32 33 32 32 32 32 31 30 29 28 27 27 27 27 26 26 25 25 24 22 21 20 20 19 18 17 17 16 16 16 16 16 17
23 25 28 28 28 29 30 28 28 29 29 28 27 26 25 25 25 25 24 24 23 23 22 21 20 19 18 17 16 15 15 14 14 14 14 14 14 15
20 22 23 24 25 26 26 25 24 25 25 25 25 24 24 23 23 22 22 22 22 21 19 18 17 16 15 14 13 13 12 12 12 12 12 12 13 14
17 19 21 22 22 23 23 22 22 22 22 22 22 22 22 22 22 21 21 21 20 18 17 17 16 14 13 12 12 11 11 11 10 10 10 11 11 12
13 15 17 19 20 21 20 20 20 20 20 20 20 20 21 20 20 20 19 19 18 17 16 15 13 12 12 11 10 10 9 9 9 9 9 10 10 10
11 13 15 17 18 19 20 20 19 19 19 19 19 19 19 19 19 18 18 17 16 15 14 13 12 12 11 9 9 8 8 8 8 8 9 9 9 9
9 11 14 15 16 17 18 19 19 19 19 19 18 18 18 18 18 17 16 15 14 13 12 12 12 11 9 9 8 7 7 7 7 8 8 8 9 9
7 10 13 14 16 16 16 17 18 19 19 19 18 17 17 17 16 15 14 14 13 12 12 11 10 10 9 8 7 7 6 6 7 7 7 8 8 9
8 10 12 14 15 15 15 16 17 18 17 18 18 17 16 16 16 15 14 13 13 12 11 10 9 9 8 7 7 6 6 6 6 6 7 7 8 8
11 12 13 14 14 14 15 16 17 18 17 17 17 17 17 16 16 15 13 13 12 11 10 9 9 8 8 7 7 7 6 6 6 6 7 7 7 8
12 13 14 14 14 14 15 15 16 16 17 17 17 16 15 15 14 14 13 12 11 10 9 9 8 8 8 7 7 7 7 7 7 7 7 8 8 9
13 14 14 14 14 14 15 15 15 16 16 16 15 14 14 13 13 12 12 11 10 9 9 8 8 8 7 7 7 7 7 7 8 8 9 9 9 10
13 13 13 13 13 13 14 14 14 15 15 15 14 14 13 13 12 11 11 10 9 9 8 8 8 7 7 8 8 8 9 9 9 9 10 10 11 11
12 12 12 12 12 13 13 14 15 14 14 14 14 13 12 12 11 10 9 9 8 8 8 7 7 7 7 8 8 9 10 10 10 10 11 11 12 12
11 11 11 11 11 11 12 13 13 13 13 13 13 12 12 11 10 9 8 8 8 7 7 7 7 7 8 9 9 10 10 11 11 11 12 13 13 14
9 9 9 10 10 10 11 11 12 12 12 12 11 11 11 10 9 8 8 7 7 7 7 7 7 8 8 9 10 11 12 12 13 13 14 15 16 17

GEFSNE_500_meanwind_066.txt.gz
Wind_Speed
45 44 42 41 41 40 39 39 38 37 36 36 35 34 33 32 30 29 28 27 27 26 26 25 25 25 25 25 25 24 24 25 25 26 26 27 27 27
45 45 45 43 41 41 40 39 39 37 36 37 37 36 34 34 33 32 30 29 28 28 27 27 27 27 26 26 25 25 25 25 25 26 27 27 27 27
44 45 46 45 44 42 42 41 39 39 38 37 38 39 37 37 36 36 34 32 31 30 30 29 28 29 28 27 26 26 26 26 26 26 26 26 26 26
43 44 45 45 45 44 42 40 40 40 40 39 38 39 39 38 38 36 36 35 34 33 31 30 29 29 28 28 27 26 26 26 26 26 25 26 25 26
39 42 42 44 45 43 42 40 40 40 41 41 39 39 39 39 39 38 37 35 34 33 32 30 30 29 28 27 26 26 26 26 25 25 25 25 24 24
35 37 39 40 42 43 42 41 40 39 39 40 39 39 39 40 38 37 37 36 35 33 32 31 30 29 27 26 26 26 26 25 24 24 24 24 23 22
32 34 34 36 38 39 39 39 39 39 39 39 38 38 38 38 38 38 37 36 34 32 31 30 29 28 26 26 26 26 25 25 24 24 22 21 20 19
27 30 32 34 35 36 37 37 37 38 38 39 39 38 38 38 38 37 36 35 33 31 30 29 27 27 26 25 25 24 24 24 23 21 20 19 18 17
24 26 28 30 32 33 34 34 35 35 36 37 37 38 37 37 36 35 34 32 30 29 27 26 25 24 24 23 23 23 23 22 20 18 18 17 16 15
20 23 25 27 29 30 31 32 33 33 34 34 34 35 36 35 35 34 32 30 28 27 25 24 23 23 23 22 21 20 19 18 17 16 16 16 15 14
15 19 22 24 26 27 29 30 31 31 33 33 33 33 33 32 32 32 31 29 26 25 25 24 23 22 21 20 18 18 17 16 16 15 14 13 13 12
12 14 18 20 23 25 26 27 28 28 29 29 28 28 28 28 27 26 26 26 25 24 23 22 21 20 19 18 17 17 16 15 14 13 12 11 11 11
9 11 14 17 19 22 23 24 25 26 26 26 26 25 23 23 23 23 23 23 22 21 21 20 20 19 18 17 16 15 14 13 12 11 11 10 10 10
5 8 11 14 16 17 18 19 20 21 21 22 22 22 22 22 22 21 21 21 20 19 19 18 18 18 17 16 15 14 13 13 12 11 10 10 9 9
4 6 8 10 12 14 15 16 18 18 19 20 20 20 21 21 20 20 19 19 19 19 18 17 17 16 16 15 14 14 13 12 11 10 9 9 9 9
5 6 7 9 10 12 13 15 17 17 17 18 19 19 19 19 19 18 18 18 18 17 16 16 15 15 15 14 14 13 12 12 11 10 10 9 9 9
7 6 7 8 9 10 12 13 15 15 15 16 17 18 18 18 17 17 18 18 17 17 16 15 14 14 14 14 13 13 12 11 11 11 10 10 10 10
6 6 7 8 9 10 11 12 13 13 13 15 15 16 17 17 17 17 17 16 16 16 15 14 14 14 14 13 13 12 12 11 11 10 10 10 10 10
6 6 6 7 8 9 10 10 11 13 14 15 16 16 16 16 16 16 16 15 15 14 14 13 13 13 13 13 12 12 11 11 11 11 11 11 11 11
6 6 6 7 8 8 9 10 10 11 13 14 15 16 16 16 15 15 15 14 14 13 13 13 13 13 12 12 12 11 11 11 11 11 12 12 12 13
4 4 5 6 7 8 8 9 10 11 12 13 14 15 15 15 15 15 14 13 13 13 12 12 12 12 11 11 11 11 11 11 12 12 12 13 13 14
2 3 4 5 6 7 8 9 10 10 11 12 13 13 13 13 13 13 13 12 12 12 12 11 11 11 11 10 10 11 11 12 12 13 14 14 14 15
1 2 3 4 6 7 8 9 10 10 11 12 12 12 12 12 12 12 12 11 11 11 11 11 11 11 11 10 11 11 11 12 12 13 14 15 15 16

GEFSNE_500_meanwind_072.txt.gz
Wind_Speed
44 45 46 44 44 42 41 41 42 41 39 37 38 39 39 38 37 36 34 32 31 30 28 27 26 25 24 23 23 23 23 23 23 22 23 23 23 24
42 43 46 46 45 44 44 42 43 42 40 39 38 39 39 39 38 37 35 34 34 32 30 29 28 27 26 25 25 24 24 24 24 24 23 23 23 23
40 41 43 45 46 45 45 43 42 42 43 42 40 38 39 39 39 38 36 35 35 34 32 31 29 28 28 27 26 26 26 25 25 24 23 24 24 24
37 40 42 43 44 45 45 45 44 43 43 43 42 40 38 39 40 39 38 37 36 35 34 32 31 30 30 30 29 28 27 26 26 25 24 24 23 23
34 37 39 42 42 43 44 45 45 43 43 43 43 42 41 40 40 39 38 37 36 35 35 34 33 32 32 31 30 29 28 27 26 25 24 24 23 23
30 33 36 39 40 42 44 45 46 45 44 44 44 44 42 41 41 40 39 38 37 37 36 35 35 35 35 34 32 30 29 28 26 25 24 24 23 22
27 30 33 36 38 41 42 44 45 46 44 44 44 44 43 42 41 40 40 40 39 38 38 38 38 37 36 35 33 31 29 28 26 25 24 23 22 22
24 27 30 32 35 37 40 42 43 44 45 44 43 43 43 43 42 40 40 41 40 39 39 39 38 36 35 35 33 31 30 29 27 25 24 23 22 22
20 24 27 29 32 34 36 39 41 42 42 41 41 41 41 41 43 43 41 41 40 39 39 38 37 36 34 34 33 31 29 27 26 25 23 23 22 20
16 20 23 26 28 31 34 35 37 39 39 39 39 39 40 40 41 42 41 40 39 39 38 37 36 35 34 33 31 28 27 25 24 23 23 23 21 20
13 16 19 22 25 28 31 34 35 36 37 38 38 38 40 39 38 37 37 37 37 37 36 35 35 34 33 31 28 27 26 25 24 23 22 21 20 19
10 13 15 19 22 24 28 31 32 33 34 35 36 35 36 37 36 35 34 35 34 35 35 34 33 32 29 28 27 26 25 23 23 22 21 20 20 19
8 10 12 15 18 19 23 26 29 30 32 33 33 34 34 34 34 34 33 33 34 34 32 32 31 29 28 27 26 25 24 23 22 22 22 21 19 18
6 7 9 11 14 16 18 22 25 26 29 31 32 32 32 32 32 32 31 31 32 32 31 30 28 27 27 27 26 25 23 22 22 22 21 20 18 17
5 4 6 8 10 12 14 17 21 23 25 26 27 28 29 30 30 30 30 29 29 29 29 28 27 27 26 25 24 23 23 22 22 21 19 18 18 16
6 4 4 6 8 10 12 15 17 20 23 24 26 27 27 28 29 29 29 29 30 29 28 27 26 25 25 24 23 23 22 22 21 20 19 18 17 17
7 5 3 3 6 9 11 12 14 16 18 20 23 25 27 27 28 29 29 28 28 27 27 27 27 25 24 23 22 21 21 20 20 19 19 18 18 17
7 5 3 3 3 6 9 11 12 14 16 18 20 22 24 25 26 26 26 26 26 25 25 25 25 24 23 23 22 21 21 21 20 19 19 18 18 17
7 5 5 4 3 5 8 10 11 13 14 16 18 21 22 23 24 24 24 25 25 25 24 24 23 23 23 22 21 21 21 20 20 19 19 19 18 17
8 6 5 4 4 5 7 10 11 13 14 15 16 18 20 21 22 23 23 23 23 23 23 23 22 22 22 22 21 21 20 19 19 19 19 18 18 17
9 8 7 6 5 6 7 9 10 12 13 15 16 18 19 20 20 21 22 22 22 22 22 22 22 21 21 21 20 20 19 19 18 18 18 18 18 18
11 10 9 9 8 8 9 10 11 12 13 14 16 17 19 20 19 20 21 21 21 22 22 22 22 21 21 20 20 19 19 19 18 18 18 18 18 18
15 13 12 12 12 11 11 11 12 13 13 14 15 16 18 19 20 20 20 20 20 21 21 21 21 21 21 20 20 20 19 19 18 18 18 18 18 18